This demonstration page uses our WeatherBlox Daily Observations layout. Learn more.

41.55636, -103.73856

Hourly Observations for August 10, 2015

Temp ( °F °C ) Dew Point ( °F °C ) Humidity (%) Winds ( mph kmh ) Pressure ( in mb ) Visibility ( mi km ) Precip ( " mm )
12:53 am 00:53 Clear 64 17.8 58 14.4 81 81 ESE 3 6 30.06 1018 10 16.0934 0 0
1:53 am 01:53 Clear 62 16.7 58 14.4 86 86 ENE 5 7 30.06 1018 10 16.0934 0 0
2:53 am 02:53 Clear 61 16.1 58 14.4 90 90 ENE 3 6 30.06 1018 10 16.0934 0 0
3:53 am 03:53 Clear 60 15.6 58 14.4 93 93 ENE 6 9 30.07 1018 10 16.0934 0 0
4:53 am 04:53 Clear 60 15.6 57 13.9 90 90 Calm 30.08 1019 10 16.0934 0 0
5:53 am 05:53 Clear 60 15.6 58 14.4 93 93 NNW 3 6 30.09 1019 10 16.0934 0 0
6:53 am 06:53 Sunny 62 16.7 58 14.4 86 86 Calm 30.11 1020 9 14.48406 0 0
7:53 am 07:53 Sunny 66 18.9 60 15.6 81 81 N 3 6 30.11 1020 10 16.0934 0 0
8:53 am 08:53 Sunny 71 21.7 61 16.1 71 71 Calm 30.12 1020 10 16.0934 0 0
9:53 am 09:53 Sunny 73 22.8 62 16.7 69 69 VRB 5 7 30.13 1020 10 16.0934 0 0
10:53 am 10:53 Sunny 76 24.4 63 17.2 64 64 E 8 13 30.12 1020 10 16.0934 0 0
11:53 am 11:53 Sunny 78 25.6 63 17.2 60 60 E 9 15 30.1 1019 10 16.0934 0 0
12:53 pm 12:53 Sunny 82 27.8 62 16.7 51 51 E 8 13 30.09 1019 10 16.0934 0 0
1:53 pm 13:53 Sunny 84 28.9 59 15 43 43 ESE 9 15 30.07 1018 10 16.0934 0 0
2:53 pm 14:53 Sunny 86 30 60 15.6 42 42 E 12 19 30.03 1017 10 16.0934 0 0
3:53 pm 15:53 Sunny 87 30.6 57 13.9 36 36 SSE 10 17 30.01 1016 10 16.0934 0 0
4:53 pm 16:53 Sunny 83 28.3 60 15.6 46 46 E 15 24 30.01 1016 10 16.0934 0 0
5:53 pm 17:53 Mostly Sunny 77 25 55 12.8 47 47 E 16 26 30.03 1017 10 16.0934 0 0
6:53 pm 18:53 Sunny 79 26.1 57 13.9 47 47 ESE 13 20 30.04 1017 10 16.0934 0 0
7:08 pm 19:08 Sunny 77 25 57 14 51 51 SE 12 19 29.88 1012 10 16.0934 0 0
7:53 pm 19:53 Mostly Sunny 74 23.3 60 15.6 62 62 ESE 10 17 30.03 1017 10 16.0934 0 0
8:53 pm 20:53 Mostly Cloudy 71 21.7 60 15.6 68 68 SE 8 13 30.06 1018 10 16.0934 0 0
9:53 pm 21:53 Mostly Clear 69 20.6 59 15 70 70 SSE 7 11 30.08 1019 10 16.0934 0 0
10:40 pm 22:40 Mostly Cloudy with Nearby Thunderstorms 70 21 61 16 73 73 SW 6 9 30 1016 10 16.0934 0 0
10:53 pm 22:53 Mostly Cloudy 69 20.6 60 15.6 73 73 SSE 3 6 30.09 1019 10 16.0934 0 0
11:53 pm 23:53 Clear 66 19 61 16 83 83 ESE 8 13 30.06 1018 10 16.0934 0 0

Powered by AerisWeather